TimeEST,TemperatureF,Dew PointF,Humidity,Sea Level PressureIn,VisibilityMPH,Wind Direction,Wind SpeedMPH,Gust SpeedMPH,PrecipitationIn,Events,Conditions,WindDirDegrees,DateUTC
12:53 AM,19.9,3.0,48,30.12,10.0,NW,6.9,-,N/A,,Partly Cloudy,310,2013-02-02 05:53:00
1:53 AM,19.0,3.9,52,30.15,10.0,NW,6.9,-,N/A,,Clear,310,2013-02-02 06:53:00
2:53 AM,19.0,3.0,50,30.17,10.0,West,11.5,-,N/A,,Clear,280,2013-02-02 07:53:00
3:53 AM,18.0,1.0,48,30.18,10.0,West,8.1,-,N/A,,Clear,270,2013-02-02 08:53:00
4:53 AM,17.1,1.0,50,30.20,10.0,West,5.8,-,N/A,,Clear,280,2013-02-02 09:53:00
5:53 AM,17.1,-0.0,47,30.22,10.0,WNW,5.8,-,N/A,,Clear,290,2013-02-02 10:53:00
6:53 AM,16.0,-0.9,47,30.24,10.0,WNW,5.8,-,N/A,,Clear,290,2013-02-02 11:53:00
7:53 AM,17.1,-0.9,45,30.25,10.0,WSW,4.6,-,N/A,,Clear,250,2013-02-02 12:53:00
8:53 AM,18.0,-0.9,44,30.27,10.0,West,5.8,-,N/A,,Clear,260,2013-02-02 13:53:00
9:53 AM,19.9,-0.0,42,30.26,10.0,SSW,4.6,-,N/A,,Clear,200,2013-02-02 14:53:00
10:53 AM,23.0,-0.0,37,30.23,10.0,SSW,8.1,-,N/A,,Clear,200,2013-02-02 15:53:00
11:53 AM,24.1,1.0,37,30.20,10.0,West,5.8,-,N/A,,Clear,270,2013-02-02 16:53:00
12:49 PM,26.6,1.4,34,30.11,1.8,South,10.4,-,N/A,,Haze,170,2013-02-02 17:49:00
12:53 PM,26.1,1.0,34,30.17,1.5,South,8.1,-,N/A,,Haze,170,2013-02-02 17:53:00
12:56 PM,26.6,1.4,34,30.10,10.0,SSW,4.6,-,N/A,,Partly Cloudy,210,2013-02-02 17:56:00
1:53 PM,27.0,1.9,34,30.14,10.0,South,6.9,-,N/A,,Scattered Clouds,170,2013-02-02 18:53:00
2:53 PM,27.0,1.0,33,30.12,10.0,South,11.5,16.1,N/A,,Overcast,190,2013-02-02 19:53:00
3:53 PM,28.0,3.0,34,30.10,10.0,South,8.1,-,N/A,,Overcast,170,2013-02-02 20:53:00
4:53 PM,27.0,3.9,37,30.09,10.0,South,4.6,-,N/A,,Mostly Cloudy,180,2013-02-02 21:53:00
5:53 PM,27.0,5.0,39,30.09,10.0,SSW,4.6,-,N/A,,Overcast,200,2013-02-02 22:53:00
6:53 PM,27.0,3.9,37,30.09,10.0,South,3.5,-,N/A,,Overcast,190,2013-02-02 23:53:00
7:53 PM,27.0,3.9,37,30.08,10.0,South,3.5,-,N/A,,Mostly Cloudy,180,2013-02-03 00:53:00
8:53 PM,27.0,3.9,37,30.08,10.0,Variable,4.6,-,N/A,,Overcast,0,2013-02-03 01:53:00
9:53 PM,27.0,5.0,39,30.08,10.0,SSW,6.9,-,N/A,,Overcast,210,2013-02-03 02:53:00
10:53 PM,26.1,6.1,43,30.07,10.0,SW,5.8,-,N/A,,Overcast,230,2013-02-03 03:53:00
11:53 PM,26.1,9.0,49,30.08,10.0,WSW,5.8,-,N/A,,Overcast,240,2013-02-03 04:53:00